Tracking 29892 objects as of 21-Nov-2024
HD Live streaming from Space Station
objects crossing your sky now

DELTA 1 DEB

Track DELTA 1 DEB now!
10-day predictions


NORAD ID: 7066
Int'l Code: 1973-086BJ
Perigee: 1,475.5 km
Apogee: 1,553.0 km
Inclination: 101.8 °
Period: 116.1 minutes
Semi major axis: 7885 km
RCS: 0.0934 m2 (small)
Launch date: November 6, 1973
Source: United States (US)
Launch site: AIR FORCE WESTERN TEST RANGE (AFWTR)

Note: This is SATELLITE DEBRIS
Your satellite tracking list
Your tracking list is empty




NASA's NSSDC Master Catalog

Two Line Element Set (TLE):
1  7066U 73086BJ  24326.16079962  .00000222  00000-0  19794-2 0  9998
2  7066 101.7838 286.7356 0049116 158.3541 272.3514 12.39878216303854
Source of the keplerian elements: AFSPC